Regional Weather Roundup
Issued by NWS

Home | Current Version | Previous Version | Graphics & Text | Print | Product List | Glossary Off
Versions: 1 2 3 4 5 6 7 8 9 10 11 12 13 14 15 16 17 18 19 20 21 22 23 24 25 26 27 28 29 30 31 32 33 34 35 36 37 38 39 40 41 42 43 44 45 46 47 48 49 50

000
ASUS43 KDMX 100608
RWRIA

WEATHER ROUNDUP FOR IOWA
NATIONAL WEATHER SERVICE DES MOINES IA
1200 AM CST WED FEB 10 2016

NOTE: "FAIR" INDICATES FEW OR NO CLOUDS BELOW 12,000 FEET WITH NO
SIGNIFICANT WEATHER AND/OR OBSTRUCTIONS TO VISIBILITY.

* - THESE STATIONS ARE NOT NWS STATIONS...THUS NOT UNDER NWS
QUALITY CONTROL.  THEY ALSO DO NOT REPORT WEATHER SUCH
AS PRECIPITATION OR FOG.

IAZ001>003-012>014-020>022-031>034-043>046-100700-
   NORTHWEST IOWA

CITY           SKY/WX    TMP DP  RH WIND       PRES   REMARKS
CARROLL *      CLOUDY    21  14  73 W9        30.16F WCI  11
CHEROKEE *     CLOUDY    21  14  73 CALM      30.15F
DENISON *      CLOUDY    18  12  79 CALM      30.15F
LE MARS *      MOCLDY    19  16  86 S3        30.17F
ORANGE CITY *  PTCLDY    18  16  93 CALM      30.14S
SHELDON *      CLOUDY    19  14  79 CALM      30.12F
SIOUX CITY     CLOUDY    20  14  77 E5        30.17F WCI  13
6HR MIN TEMP:  17; 6HR MAX TEMP:  25;

SPENCER        CLOUDY    19  10  68 NW8       30.13F WCI   9
6HR MIN TEMP:  18; 6HR MAX TEMP:  19;

STORM LAKE *   CLOUDY    19  14  79 NW7       30.13F WCI  10
$$

IAZ055>058-069>071-079>083-090>094-100700-
   SOUTHWEST IOWA

CITY           SKY/WX    TMP DP  RH WIND       PRES   REMARKS
ATLANTIC *     CLOUDY    21  12  68 CALM      30.19F
AUDUBON *      CLOUDY    19  12  73 NW3       30.17S
CLARINDA *     CLOUDY    21  14  73 CALM      30.23F
COUNCIL BLFS * CLEAR     19  14  79 SW6       30.20S WCI  11
CRESTON *      CLOUDY    21  12  68 NW13      30.18S WCI   9
HARLAN  *      CLOUDY    21  14  73 W7        30.22S WCI  13
LAMONI         CLEAR     16  10  77 NW9       30.18R WCI   4
6HR MIN TEMP:  16; 6HR MAX TEMP:  18;

RED OAK *      CLOUDY    21  16  79 W7        30.21F WCI  13
SHENANDOAH *   CLOUDY    19  16  86 SW5       30.23F WCI  13
$$

IAZ047>049-059>061-072>074-084-100700-
   CENTRAL IOWA

CITY           SKY/WX    TMP DP  RH WIND       PRES   REMARKS
AMES           CLEAR     13   6  74 NW10      30.17S WCI   0
6HR MIN TEMP:  13; 6HR MAX TEMP:  16;

ANKENY *       CLEAR     14   7  73 NW7       30.19S WCI   4
BOONE *        MOCLDY    12   5  73 NW6       30.15F WCI   3
CHARITON *     CLEAR     12   7  79 NW5       30.18R WCI   4
DES MOINES     PTCLDY    15   6  67 N7        30.19R WCI   5
6HR MIN TEMP:  14; 6HR MAX TEMP:  18;

GRINNELL*      CLEAR     10   7  85 NW12      30.15R WCI  -4
KNOXVILLE *    CLEAR     14   5  67 NW12      30.17R WCI   0
MARSHALLTOWN   CLEAR      7   3  84 NW10      30.15R WCI  -8
6HR MIN TEMP:   7; 6HR MAX TEMP:  13;

NEWTON *       FLURRIES  12   7  79 NW17      30.16R WCI  -5
PELLA *        CLEAR     13   7  78 NW10      30.19R WCI   0
$$

IAZ004>006-015-016-023>025-035-036-100700-
   NORTH CENTRAL IOWA

CITY           SKY/WX    TMP DP  RH WIND       PRES   REMARKS
ALGONA *       CLOUDY    12   9  85 N6        30.12F WCI   3
CLARION *      CLEAR      5   0  78 CALM      30.15F
ESTHERVILLE    CLOUDY    15   9  76 N10       30.12F WCI   2
6HR MIN TEMP:  12; 6HR MAX TEMP:  16;

FORT DODGE *   CLOUDY     7   1  78 CALM      30.16F
MASON CITY     CLOUDY     7   2  80 NW17      30.13S WCI -12
6HR MIN TEMP:   5; 6HR MAX TEMP:  11;

FOREST CITY *  CLEAR      9   5  85 NW8       30.12F WCI  -4
WEBSTER CITY * CLEAR      7   1  78 N9        30.14F WCI  -7
IOWA FALLS *     N/A      9   3  78 NW12      30.15S WCI  -6
$$

IAZ007>011-017>019-026>030-037>042-050>054-066-100700-
   NORTHEAST IOWA

CITY           SKY/WX    TMP DP  RH WIND       PRES   REMARKS
CEDAR RAPIDS   CLEAR     10   2  69 NW12      30.10S WCI  -5
6HR MIN TEMP:   9; 6HR MAX TEMP:  12;

CHARLES CITY * PTCLDY     9   0  66 NW15      30.12R WCI  -8
CLINTON *      CLEAR     10   3  73 NW13      30.07R WCI  -5
DECORAH *      CLEAR      3  -6  66 NW6       30.07S WCI  -8
DUBUQUE        CLEAR      8  -1  66 NW15      30.04R WCI  -9
6HR MIN TEMP:   8; 6HR MAX TEMP:  11;

MONTICELLO *   CLEAR      9   0  66 NW13      30.09R WCI  -7
OELWEIN *      PTCLDY     5  -2  72 NW12      30.11R WCI -11
WATERLOO       CLEAR      7  -2  66 W9        30.14R WCI  -7
6HR MIN TEMP:   7; 6HR MAX TEMP:  12;

$$

IAZ064-065-067-068-078-100700-
   EAST CENTRAL IOWA

CITY           SKY/WX    TMP DP  RH WIND       PRES   REMARKS
DAVENPORT      CLEAR     10   1  67 NW15      30.07S WCI  -7
6HR MIN TEMP:  10; 6HR MAX TEMP:  13;

IOWA CITY      CLEAR     11   2  67 NW12      30.14R WCI  -3
6HR MIN TEMP:  11; 6HR MAX TEMP:  14;

MT. PLEASANT * CLEAR     15   5  66 NW10G18   30.13S WCI   2
MUSCATINE *    CLEAR     12   3  67 NW8       30.13S WCI   1
QUAD CITIES    CLEAR     12   1  61 NW10      30.09R WCI  -1
6HR MIN TEMP:  12; 6HR MAX TEMP:  15;

$$

IAZ062-063-075>077-085>089-095>099-100700-
   SOUTHEAST IOWA

CITY           SKY/WX    TMP DP  RH WIND       PRES   REMARKS
BURLINGTON     CLEAR     12   3  67 NW10      30.11S WCI  -1
6HR MIN TEMP:  12; 6HR MAX TEMP:  15;

FAIRFIELD *    CLEAR     12   5  73 NW12      30.14S WCI  -2
FORT MADISON * CLEAR     10   5  79 NW10      30.13S WCI  -3
KEOKUK *       CLEAR     14   7  73 NW13      30.13F WCI   0
OSKALOOSA *      N/A     12   8  82 NW13      30.17R WCI  -3
CENTERVILLE *    N/A     14   9  79 NW12      30.18S WCI   0
OTTUMWA        CLEAR     12   7  80 NW12      30.16R WCI  -2
6HR MIN TEMP:  12; 6HR MAX TEMP:  15;

WASHINGTON *   CLEAR     10   3  72 NW14      30.14S WCI  -5
$$

ABBREVIATIONS USED IN REMARKS
   TC - TEMPERATURES IN CELSIUS
  WCI - WIND CHILL INDEX
   HX - HEAT INDEX
  VSB - VISIBILITY
$$




USA.gov is the U.S. government's official web portal to all federal, state and local government web resources and services.